Regional Weather Roundup
Issued by NWS

Home | Current Version | Previous Version | Graphics & Text | Print | Product List | Glossary On
Versions: 1 2 3 4 5 6 7 8 9 10 11 12 13 14 15 16 17 18 19 20 21 22 23 24 25 26 27 28 29 30 31 32 33 34 35 36 37 38 39 40 41 42 43 44 45 46 47 48 49 50
000
ASUS43 KLMK 232010
RWRKY
KENTUCKY REGIONAL WEATHER ROUNDUP
NATIONAL WEATHER SERVICE LOUISVILLE KY
400 PM EDT WED MAY 23 2018

NOTE "FAIR" INDICATES FEW OR NO CLOUDS BELOW 12,000 FEET
WITH NO SIGNIFICANT WEATHER AND/OR OBSTRUCTIONS TO VISIBILITY.

KYZ001>023-026-027-061>063-070>075-232100-
WESTERN AND SOUTH CENTRAL KENTUCKY

CITY           SKY/WX    TMP DP  RH WIND       PRES   REMARKS
PADUCAH        FAIR      87  63  44 N9        30.07F
HENDERSON      NOT AVBL
OWENSBORO      FAIR      84  63  49 NE8       30.10F
HOPKINSVILLE   FAIR      85  64  48 NW6       30.07F
BOWLING GREEN  FAIR      86  65  49 NE5       30.08F
GLASGOW        FAIR      83  63  51 N3        30.09F
$$

KYZ024-025-028>034-038-045-046-053-232100-
NORTH CENTRAL KENTUCKY

CITY           SKY/WX    TMP DP  RH WIND       PRES   REMARKS
LOUISVILLE/SDF PTSUNNY   86  60  41 N3        30.10F
LOUISVILLE/LOU FAIR      84  62  47 N10G17    30.11F
FORT KNOX      FAIR      82  62  51 N10       30.11F
$$

KYZ035>037-039>044-047>052-055>060-089>105-232100-
NORTHEAST KENTUCKY

CITY           SKY/WX    TMP DP  RH WIND       PRES   REMARKS
LEXINGTON      FAIR      81  62  52 N6        30.12F
COVINGTON      FAIR      80  56  43 N8        30.14S
FRANKFORT      FAIR      82  59  45 VRB6      30.11F
$$

KYZ054-064>069-076>088-106>120-232100-
SOUTHEAST KENTUCKY

CITY           SKY/WX    TMP DP  RH WIND       PRES   REMARKS
JACKSON        PTSUNNY   83  65  54 CALM      30.11F
LONDON         FAIR      80  63  55 N7        30.11F
SOMERSET       FAIR      81  61  50 MISG      30.11F
MIDDLESBORO    FAIR      83  64  52 N5        30.10F
MONTICELLO     FAIR      83  64  52 NE8G21    30.11F
$$





USA.gov is the U.S. government's official web portal to all federal, state and local government web resources and services.